Погода в Армавире

Россия / Краснодарский край     44°59′51″N   41°07′46″E
темп.,
°C
ветер,
м/с
пор.,
м/с
влажн.,
%
обл.,
%
осадки,
мм/ч
давл.,
гПа
погр.,
м
7 мая, пт
пт700:00+11юв4770100 0.0 1013112
03:00+10ю347685 0.0 101362
06:00+11зюз269037 0.2 1015212
09:00+15з455925 0.2 1017462
12:00+18з68550 0.0 10171079
15:00+19зсз46525 0.0 10171328
18:00+18сз236847 0.0 1017145
21:00+13юв2274100 0.0 101811
8 мая, сб
сб800:00+12юв33785 0.0 101823
03:00+11вюв34796 0.0 101747
06:00+11юв488431 0.0 1016148
09:00+17юв4669100 0.0 1015510
12:00+21юв4458100 0.0 1014939
15:00+22вюв2254100 0.0 10121160
18:00+20вюв3572100 0.0 1011150
21:00+15юв477879 0.0 1011115
9 мая, вс
вс900:00+14юв487982 0.0 1009112
03:00+14з61572100 0.0 1011456
06:00+12ююз3486100 0.1 1011150
09:00+13зюз2485100 0.2 1011323
12:00+8зсз91295100 1.2 1014767
15:00+7зсз6996100 11.2 1019977
18:00+8зсз4892100 0.8 1021639
21:00+7з5119498 0.9 1022391
10 мая, пн
пн1000:00+6зюз6139255 0.1 1022351
03:00+5зюз5119185 0.3 1023294
06:00+5зюз499347 0.0 1023304
09:00+10з68754 0.5 1021984
12:00+11з9116266 0.9 10201907
15:00+11зсз811705 1.9 10201498
18:00+7з61091100 1.6 10201075
21:00+6з61094100 2.5 1021816
11 мая, вт
вт1100:00+5юз4119296 0.1 1019410
03:00+3ю3493100 0.1 101972
06:00+5юв3990100 0.0 1019307
09:00+10юв5777100 0.1 1018614
12:00+13вюв3455100 0.0 10171641
15:00+13вюв5666100 0.6 10161127
18:00+11вюв61177100 0.6 1017638
21:00+9вюв3581100 0.7 1017169